Flag for South Africa Weather past 2 weeks in Bloemfontein, South Africa

Now
72 °F

Sunny.


Feels Like: 75 °F
Forecast: 45 / 73 °F
Wind: 2 mph from North

Location: Bloemfontein Airport

Current Time: Apr 21, 2015 at 12:01:50 PM

Latest Report: Apr 21, 2015 at 11:00 AM


Visibility: 10 mi

Pressure: 30.30 "Hg

Humidity: 22%

Dew point: 30 °F

Location of BloemfonteinLocation

Historic Weather in Bloemfontein — Graph

°F

Bloemfontein temperature yesterday

Maximum temperature yesterday: 73 °F (at 3:00 PM)
Minimum temperature yesterday: 34 °F (at 6:00 AM)
Average temperature yesterday: 54 °F

Past Weeks' High & Low Weather Summary

 TemperatureHumidityPressure
High81 °F (Apr 13, 2:00 PM)93% (Apr 12, 6:00 AM)30.36 "Hg (Apr 12, 6:00 AM)
Low32 °F (Apr 18, 6:00 AM)10% (Apr 20, 2:00 PM)29.98 "Hg (Apr 15, 3:00 PM)
Average58 °F51%30.20 "Hg
* Reported Apr 6 11:00 AM — Apr 21 11:00 AM, Bloemfontein, Weather by CustomWeather, © 2015

Note: Actual official high and low records may vary slightly from our data, if they occured in-between our weather recording intervals... More about our weather records

Advertising

Bloemfontein weather history for previous 24 hours

 ConditionsComfort  
Time TempWeatherWind HumidityBarometerVisibility
11:00 AM
Tue, Apr 21
72 °FSunny.2 mph22%30.30 "Hg10 mi
10:48 AM70 °FSunny.3 mph29%30.30 "Hg10 mi
10:00 AM63 °FPassing clouds.5 mph37%30.30 "HgN/A
9:00 AM55 °FPassing clouds.3 mph38%30.30 "HgN/A
8:46 AM55 °FPassing clouds.3 mph36%30.30 "HgN/A
8:00 AM50 °FSunny.No wind43%30.30 "Hg10 mi
7:00 AM36 °FSunny.2 mph70%30.24 "Hg10 mi
6:00 AM36 °FSunny.2 mph70%30.24 "Hg10 mi
5:00 AM37 °FClear.No wind65%30.24 "Hg10 mi
4:00 AM37 °FChilly.No wind65%30.21 "HgN/A
3:00 AM37 °FChilly.No wind60%30.21 "HgN/A
2:00 AM37 °FChilly.No wind65%30.24 "HgN/A
1:00 AM41 °FQuite cool.2 mph53%30.21 "HgN/A
12:00 AM41 °FQuite cool.5 mph53%30.21 "HgN/A
11:00 PM
Mon, Apr 20
43 °FQuite cool.No wind53%30.24 "HgN/A
10:00 PM50 °FCool.3 mph35%30.21 "HgN/A
9:00 PM54 °FCool.5 mph33%30.21 "Hg6 mi
8:00 PM59 °FClear.3 mph20%30.21 "Hg10 mi
7:00 PM61 °FClear.6 mph23%30.15 "Hg10 mi
6:00 PM66 °FPassing clouds.5 mph18%30.15 "HgN/A
5:00 PM72 °FClear.6 mph10%30.15 "Hg10 mi
4:00 PM73 °FPassing clouds.9 mph14%30.15 "HgN/A
3:00 PM73 °FPassing clouds.10 mph14%30.15 "HgN/A
2:00 PM72 °FSunny.8 mph10%30.18 "Hg10 mi
1:00 PM72 °FPassing clouds.12 mph16%30.15 "HgN/A
12:00 PM70 °FPassing clouds.10 mph17%30.18 "HgN/A
Weather by CustomWeather, © 2015

See weather overviewHow to use our weather pages